Location: Unspecified
(0.0000°N, 0.0000°E)
Time: 14:40:38
(UTC+02:00)

HO-68 - Visible Passes

Search period start: 20 August 2014 00:00
Search period end: 30 August 2014 00:00
Orbit: 1193 x 1204 km, 100.2° (Epoch: 20 August)

Date Brightness Start Highest point End Pass type
(mag) Time Alt. Az. Time Alt. Az. Time Alt. Az.
20 Aug ? 22:54:17 22° N 22:54:17 22° N 22:56:27 10° NNW visible
21 Aug ? 22:37:13 22° N 22:37:13 22° N 22:39:26 10° N visible
22 Aug ? 22:20:10 20° NNE 22:20:10 20° NNE 22:22:12 10° N visible
23 Aug ? 22:03:06 16° NNE 22:03:06 16° NNE 22:04:42 10° NNE visible
24 Aug ? 21:46:03 12° NE 21:46:03 12° NE 21:46:49 10° NNE visible
24 Aug ? 23:35:30 12° NW 23:35:30 12° NW 23:36:03 10° NW visible
25 Aug ? 23:18:27 15° NNW 23:18:27 15° NNW 23:19:32 10° NNW visible
26 Aug ? 23:01:24 17° NNW 23:01:24 17° NNW 23:02:48 10° NNW visible
27 Aug ? 22:44:21 18° N 22:44:21 18° N 22:45:52 10° N visible
28 Aug ? 22:27:18 17° N 22:27:18 17° N 22:28:44 10° N visible
29 Aug ? 22:10:16 15° NNE 22:10:16 15° NNE 22:11:21 10° NNE visible
